Weather History for Tahlequah, OK

Change the Weather History Date:

Friday, May 3, 2013

  Actual Average (KMKO) Record (KMKO)
Temperature  
Mean Temperature 42 °F -  
Max Temperature 53 °F 75 °F 87 °F (2012)
Min Temperature 32 °F 53 °F 33 °F (2011)
Degree Days  
Heating Degree Days 22    
Moisture  
Dew Point 33 °F    
Average Humidity 70    
Maximum Humidity 100    
Minimum Humidity 41    
Precipitation  
Precipitation 0.02 in - - ()
Sea Level Pressure  
Sea Level Pressure 30.12 in    
Wind  
Wind Speed 13 mph (NNW)    
Max Wind Speed 24 mph    
Max Gust Speed 31 mph    
Visibility 10 miles    
Events Snow    
Averages and records for this station are not official NWS values.
T = Trace of Precipitation, MM = Missing Value Source: NWS Daily Summary

Daily Weather History Graph

Daily Weather History Graph

Search for Another Location

Airport:

Trip Planner

Search our weather history database for the weather conditions in past years. The results will help you decide how hot, cold, wet, or windy it might be!

Date:

Astronomy

May. 03, 2013 Rise Set
Actual Time 6:25 AM CDT 8:09 PM CDT
Civil Twilight 5:57 AM CDT 8:36 PM CDT
Nautical Twilight 5:24 AM CDT 9:10 PM CDT
Astronomical Twilight 4:49 AM CDT 9:45 PM CDT
Moon 2:38 AM CDT (5/3) 2:15 PM CDT (5/3)
Length of Visible Light 14h 39m
Length of Day
13h 43m
Last Quarter, 37% of the Moon is Illuminated
May 3
Last Quarter
May 9
New
May 17
First Quarter
May 24
Full
May 31
Last Quarter

Hourly Weather History & Observations

Time (CDT) Temp. Windchill Dew Point Humidity Pressure Visibility Wind Dir Wind Speed Gust Speed Precip Events Conditions
12:15 AM 32.0 °F 22.1 °F 32.0 °F 100% 30.30 in 4.0 mi NNW 13.8 mph 21.9 mph 0.01 in Snow Light Snow
12:55 AM 32.0 °F 21.6 °F 32.0 °F 100% 30.29 in 7.0 mi NNW 15.0 mph 19.6 mph 0.01 in Snow Light Snow
1:15 AM 32.0 °F 22.1 °F 32.0 °F 100% 30.29 in 7.0 mi North 13.8 mph 23.0 mph N/A Snow Light Snow
1:35 AM 33.8 °F 23.5 °F 32.0 °F 93% 30.27 in 10.0 mi NNW 16.1 mph 23.0 mph 0.01 in   Overcast
1:55 AM 33.8 °F 23.5 °F 32.0 °F 93% 30.26 in 10.0 mi North 16.1 mph 20.7 mph 0.01 in   Overcast
2:15 AM 33.8 °F 23.5 °F 32.0 °F 93% 30.24 in 10.0 mi NNW 16.1 mph 27.6 mph N/A   Overcast
2:35 AM 33.8 °F 24.3 °F 32.0 °F 93% 30.24 in 10.0 mi NNW 13.8 mph 26.5 mph N/A   Overcast
2:55 AM 33.8 °F 23.5 °F 32.0 °F 93% 30.24 in 10.0 mi North 16.1 mph 24.2 mph N/A   Overcast
3:15 AM 33.8 °F 24.3 °F 32.0 °F 93% 30.23 in 10.0 mi North 13.8 mph 24.2 mph N/A   Overcast
3:35 AM 33.8 °F 23.9 °F 32.0 °F 93% 30.23 in 10.0 mi North 15.0 mph 23.0 mph N/A   Mostly Cloudy
3:55 AM 33.8 °F 24.8 °F 32.0 °F 93% 30.22 in 10.0 mi North 12.7 mph 20.7 mph N/A   Mostly Cloudy
4:15 AM 33.8 °F 25.3 °F 33.8 °F 100% 30.22 in 10.0 mi North 11.5 mph 23.0 mph N/A   Overcast
4:35 AM 35.6 °F 26.6 °F 32.0 °F 87% 30.21 in 10.0 mi North 13.8 mph 21.9 mph N/A   Mostly Cloudy
4:55 AM 35.6 °F 26.2 °F 32.0 °F 87% 30.22 in 10.0 mi NNW 15.0 mph 19.6 mph N/A   Mostly Cloudy
5:15 AM 35.6 °F 25.9 °F 33.8 °F 93% 30.21 in 10.0 mi NW 16.1 mph 20.7 mph N/A   Overcast
5:35 AM 35.6 °F 27.1 °F 32.0 °F 87% 30.20 in 10.0 mi NNW 12.7 mph 26.5 mph N/A   Overcast
5:55 AM 35.6 °F 26.2 °F 33.8 °F 93% 30.20 in 10.0 mi NNW 15.0 mph 24.2 mph N/A   Overcast
6:15 AM 35.6 °F 27.5 °F 32.0 °F 87% 30.19 in 10.0 mi NW 11.5 mph - N/A   Mostly Cloudy
6:35 AM 35.6 °F 27.5 °F 33.8 °F 93% 30.20 in 10.0 mi NW 11.5 mph - N/A   Mostly Cloudy
6:55 AM 35.6 °F 29.2 °F 33.8 °F 93% 30.19 in 7.0 mi WNW 8.1 mph - N/A   Mostly Cloudy
7:15 AM 35.6 °F 28.0 °F 33.8 °F 93% 30.19 in 5.0 mi WNW 10.4 mph - N/A   Mostly Cloudy
7:35 AM 35.6 °F 28.6 °F 33.8 °F 93% 30.19 in 5.0 mi NW 9.2 mph - N/A   Overcast
7:55 AM 35.6 °F 29.2 °F 33.8 °F 93% 30.18 in 7.0 mi WNW 8.1 mph - N/A   Overcast
8:15 AM 35.6 °F 28.6 °F 35.6 °F 100% 30.18 in 10.0 mi WNW 9.2 mph - N/A   Overcast
8:35 AM 37.4 °F 30.3 °F 35.6 °F 93% 30.17 in 10.0 mi WNW 10.4 mph - N/A   Overcast
8:55 AM 37.4 °F 29.8 °F 35.6 °F 93% 30.17 in 10.0 mi WNW 11.5 mph 16.1 mph N/A   Scattered Clouds
9:15 AM 39.2 °F 31.2 °F 35.6 °F 87% 30.16 in 10.0 mi NW 13.8 mph 19.6 mph N/A   Scattered Clouds
9:55 AM 42.8 °F 34.8 °F 35.6 °F 76% 30.16 in 10.0 mi NNW 17.3 mph 27.6 mph N/A   Mostly Cloudy
10:15 AM 44.6 °F 38.1 °F 33.8 °F 66% 30.15 in 10.0 mi NNW 13.8 mph 25.3 mph N/A   Scattered Clouds
10:35 AM 44.6 °F 36.4 °F 33.8 °F 66% 30.15 in 10.0 mi NNW 20.7 mph 29.9 mph N/A   Scattered Clouds
10:55 AM 44.6 °F 36.1 °F 32.0 °F 61% 30.15 in 10.0 mi NNW 21.9 mph 29.9 mph N/A   Clear
11:15 AM 46.4 °F 38.1 °F 33.8 °F 62% 30.14 in 10.0 mi NW 24.2 mph 31.1 mph N/A   Scattered Clouds
11:35 AM 48.2 °F - 32.0 °F 54% 30.14 in 10.0 mi NW 21.9 mph 27.6 mph N/A   Scattered Clouds
11:55 AM 48.2 °F - 32.0 °F 54% 30.14 in 10.0 mi NNW 24.2 mph 31.1 mph N/A   Scattered Clouds
12:35 PM 50.0 °F - 32.0 °F 50% 30.11 in 10.0 mi North 19.6 mph 28.8 mph N/A   Clear
12:55 PM 50.0 °F - 32.0 °F 50% 30.10 in 10.0 mi NNW 18.4 mph - N/A   Clear
1:15 PM 51.8 °F - 32.0 °F 47% 30.09 in 10.0 mi NW 17.3 mph 24.2 mph N/A   Clear
1:35 PM 50.0 °F - 28.4 °F 43% 30.09 in 10.0 mi NNW 18.4 mph 29.9 mph N/A   Clear
1:55 PM 51.8 °F - 32.0 °F 47% 30.08 in 10.0 mi NW 15.0 mph 28.8 mph N/A   Clear
2:15 PM 51.8 °F - 32.0 °F 47% 30.07 in 10.0 mi NNW 17.3 mph 23.0 mph N/A   Clear
2:35 PM 51.8 °F - 32.0 °F 47% 30.07 in 10.0 mi NNW 13.8 mph 23.0 mph N/A   Clear
2:55 PM 53.6 °F - 32.0 °F 44% 30.06 in 10.0 mi NW 17.3 mph 24.2 mph N/A   Clear
3:15 PM 53.6 °F - 32.0 °F 44% 30.05 in 10.0 mi NNW 18.4 mph 26.5 mph N/A   Clear
3:35 PM 53.6 °F - 32.0 °F 44% 30.04 in 10.0 mi North 13.8 mph 21.9 mph N/A   Clear
3:55 PM 53.6 °F - 30.2 °F 41% 30.03 in 10.0 mi NNW 17.3 mph 28.8 mph N/A   Clear
4:15 PM 53.6 °F - 32.0 °F 44% 30.02 in 10.0 mi NNW 12.7 mph 24.2 mph N/A   Clear
4:35 PM 53.6 °F - 30.2 °F 41% 30.02 in 10.0 mi NNW 16.1 mph 21.9 mph N/A   Clear
4:55 PM 53.6 °F - 30.2 °F 41% 30.02 in 10.0 mi NNW 15.0 mph 24.2 mph N/A   Clear
5:15 PM 53.6 °F - 32.0 °F 44% 30.01 in 10.0 mi NNW 11.5 mph 18.4 mph N/A   Clear
5:35 PM 53.6 °F - 30.2 °F 41% 30.01 in 10.0 mi NNW 12.7 mph 18.4 mph N/A   Clear
5:55 PM 51.8 °F - 32.0 °F 47% 30.01 in 10.0 mi North 13.8 mph 18.4 mph N/A   Clear
6:15 PM 51.8 °F - 32.0 °F 47% 30.01 in 10.0 mi North 9.2 mph - N/A   Clear
6:35 PM 50.0 °F - 32.0 °F 50% 30.01 in 10.0 mi North 9.2 mph - N/A   Clear
6:55 PM 50.0 °F - 32.0 °F 50% 30.00 in 10.0 mi North 9.2 mph - N/A   Clear
7:15 PM 50.0 °F - 32.0 °F 50% 30.01 in 10.0 mi North 10.4 mph - N/A   Clear
7:35 PM 48.2 °F - 30.2 °F 50% 30.01 in 10.0 mi North 8.1 mph - N/A   Clear
7:55 PM 46.4 °F 43.5 °F 30.2 °F 53% 30.01 in 10.0 mi North 5.8 mph - N/A   Clear
8:15 PM 44.6 °F - 32.0 °F 61% 30.01 in 10.0 mi Calm Calm - N/A   Clear
8:35 PM 44.6 °F 43.1 °F 32.0 °F 61% 30.01 in 10.0 mi North 3.5 mph - N/A   Clear
8:55 PM 44.6 °F 42.2 °F 32.0 °F 61% 30.01 in 10.0 mi NNE 4.6 mph - N/A   Scattered Clouds
9:15 PM 44.6 °F - 32.0 °F 61% 30.00 in 10.0 mi Calm Calm - N/A   Scattered Clouds
9:35 PM 44.6 °F 43.1 °F 32.0 °F 61% 30.01 in 10.0 mi NE 3.5 mph - N/A   Clear
9:55 PM 44.6 °F - 32.0 °F 61% 30.01 in 10.0 mi Calm Calm - N/A   Clear
10:15 PM 42.8 °F - 32.0 °F 66% 30.01 in 10.0 mi Calm Calm - N/A   Clear
10:55 PM 42.8 °F - 33.8 °F 70% 30.00 in 10.0 mi Calm Calm - N/A   Scattered Clouds
11:15 PM 41.0 °F - 37.4 °F 87% 29.99 in 10.0 mi Calm Calm - N/A   Scattered Clouds
11:35 PM 41.0 °F - 35.6 °F 81% 29.99 in 10.0 mi Calm Calm - N/A   Clear
11:55 PM 41.0 °F - 32.0 °F 70% 29.98 in 10.0 mi Calm Calm - N/A   Clear